Maplewood, Minnesota, United States
Lat: 44.95N, Lon: 93W
Wx Zone: MNZ062
Local Info
Past Weather Observations for Sunday, January 25, 2015

NOTE: This archive is for the closest National Weather Service station to Maplewood. Information may differ from the station used for current weather conditions.

Click here for Long-term Archive

Time Weather Temperature Dewpoint Humidity Pressure Winds Precip Visibility
23:53
Clear
21°F / -6°C 18°F / -8°C 86% 30.01 in
(1016 mb)
S 6.9 mph
(S 11 kph)
- 10SM
22:53
Clear
21°F / -6°C 16°F / -9°C 80% 30.04 in
(1017 mb)
S 6.9 mph
(S 11 kph)
- 10SM
21:53
Clear
21°F / -6°C 16°F / -9°C 80% 30.04 in
(1017 mb)
S 5.8 mph
(S 9 kph)
- 10SM
20:53
Clear
21°F / -6°C 16°F / -9°C 80% 30.06 in
(1018 mb)
S 5.8 mph
(S 9 kph)
- 10SM
19:53
Clear
21°F / -6°C 14°F / -10°C 74% 30.09 in
(1019 mb)
S 3.5 mph
(S 6 kph)
- 10SM
18:53
Clear
21°F / -6°C 14°F / -10°C 74% 30.09 in
(1019 mb)
SE 5.8 mph
(SE 9 kph)
- 10SM
17:53
Clear
21°F / -6°C 12°F / -11°C 68% 30.06 in
(1018 mb)
SSE 5.8 mph
(SSE 9 kph)
- 10SM
16:53
Clear
25°F / -4°C 10°F / -12°C 54% 30.06 in
(1018 mb)
SE 4.6 mph
(SE 7 kph)
- 10SM
15:53
Clear
27°F / -3°C 10°F / -12°C 50% 30.06 in
(1018 mb)
ENE 5.8 mph
(ENE 9 kph)
- 10SM
14:53
Clear
27°F / -3°C 12°F / -11°C 54% 30.06 in
(1018 mb)
NE 5.8 mph
(NE 9 kph)
- 10SM
13:53
Partly Cloudy
25°F / -4°C 12°F / -11°C 59% 30.06 in
(1018 mb)
ENE 8.1 mph
(ENE 13 kph)
- 10SM
13:09
Partly Cloudy
25°F / -4°C 12°F / -11°C 59% 30.06 in
(1018 mb)
NE 5.8 mph
(NE 9 kph)
- 10SM
13:00
Overcast
25°F / -4°C 14°F / -10°C 63% 30.06 in
(1018 mb)
NE 8.1 mph
(NE 13 kph)
- 10SM
12:53
Mostly Cloudy
25°F / -4°C 12°F / -11°C 59% 30.06 in
(1018 mb)
NE 9.2 mph
(NE 15 kph)
- 10SM
11:53
Mostly Cloudy
21°F / -6°C 10°F / -12°C 63% 30.06 in
(1018 mb)
E 9.2 mph
(E 15 kph)
- 10SM
10:53
Overcast
21°F / -6°C 10°F / -12°C 63% 30.06 in
(1018 mb)
NE 13.8 mph
(NE 22 kph)
- 10SM
09:53
Overcast
19°F / -7°C 12°F / -11°C 73% 30.04 in
(1017 mb)
NE 9.2 mph
(NE 15 kph)
- 10SM
08:53
Partly Cloudy
19°F / -7°C 10°F / -12°C 68% 30.01 in
(1016 mb)
NE 13.8 mph
(NE 22 kph)
- 10SM
07:53
Partly Cloudy
19°F / -7°C 12°F / -11°C 73% 29.98 in
(1015 mb)
NNE 12.7 mph
(NNE 20 kph)
- 10SM
06:53
Mostly Cloudy
21°F / -6°C 14°F / -10°C 74% 29.95 in
(1014 mb)
NE 10.4 mph
(NE 17 kph)
- 10SM
06:28
Overcast
25°F / -4°C 16°F / -9°C 69% 29.95 in
(1014 mb)
N 10.4 mph
(N 17 kph)
- 10SM
05:53
Overcast
25°F / -4°C 18°F / -8°C 74% 29.92 in
(1013 mb)
N 10.4 mph
(N 17 kph)
- 10SM
04:53
Overcast
28°F / -2°C 21°F / -6°C 74% 29.86 in
(1011 mb)
NNE 10.4 mph
(NNE 17 kph)
- 10SM
03:53
Overcast
30°F / -1°C 23°F / -5°C 75% 29.83 in
(1010 mb)
NNE 13.8 mph
(NNE 22 kph)
- 10SM
02:53
Overcast
30°F / -1°C 27°F / -3°C 86% 29.8 in
(1009 mb)
NE 12.7 mph
(NE 20 kph)
0.00 in
(0.00 mm)
10SM
01:53
Overcast
Light Snow
32°F / 0°C 28°F / -2°C 87% 29.77 in
(1008 mb)
NE 11.5 mph
(NE 19 kph)
0.01 in
(0.25 mm)
4SM
01:29
Overcast
Light Snow
34°F / 1°C 30°F / -1°C 87% 29.74 in
(1007 mb)
NE 12.7 mph
(NE 20 kph)
0.01 in
(0.25 mm)
3SM
01:01
Overcast
Light Snow
34°F / 1°C 32°F / 0°C 93% 29.74 in
(1007 mb)
NE 6.9 mph
(NE 11 kph)
0.00 in
(0.00 mm)
6SM
00:53
Overcast
Unknown Precip
34°F / 1°C 32°F / 0°C 93% 29.74 in
(1007 mb)
NNE 6.9 mph
(NNE 11 kph)
0.00 in
(0.00 mm)
8SM
00:38
Overcast
Unknown Precip
34°F / 1°C 32°F / 0°C 93% 29.71 in
(1006 mb)
NE 6.9 mph
(NE 11 kph)
0.00 in
(0.00 mm)
8SM
00:06
Overcast
Unknown Precip
36°F / 2°C 30°F / -1°C 81% 29.71 in
(1006 mb)
NE 9.2 mph
(NE 15 kph)
0.00 in
(0.00 mm)
6SM
Time Weather Temperature Dewpoint Humidity Pressure Winds Precip Visibility


Weather for websites

WeatherForYou.com, LLC is not responsible for any damages or problems caused by this service. Current weather conditions are obtained from the closest station including government and personal stations which may have varying degrees of accuracy. Weather forecasts are derived from the NOAA NDFD. Like all things, this site belongs to Jesus Christ... He just trusts me to maintain it. If you have any questions or comments email webmaster@weatherforyou.com

Copyright © 2015, WeatherForYou.com LLC. All rights reserved.